EW3700 Weather Reports


time (UTC)temp
C
wind
direction
speed
KPH
gust
KPH
rain 1hr
cm
rain 24hr
cm
rain mn
cm
humidity
%
barometer
mb
20260502234037 18 270 6.4 27.4 0.00 0.00 0.00 35 1009.9
20260502233017 18 203 3.2 12.9 0.00 0.00 0.00 33 1009.7
20260502232017 18 203 3.2 11.3 0.00 0.00 0.00 33 1009.8
20260502231017 18 203 1.6 16.1 0.00 0.00 0.00 32 1009.8
20260502230017 18 270 1.6 9.7 0.00 0.00 0.00 32 1009.8
20260502225037 18 270 3.2 11.3 0.00 0.00 0.00 32 1010.0
20260502224017 18 270 3.2 9.7 0.00 0.00 0.00 32 1010.1
20260502223037 18 270 4.8 11.3 0.00 0.00 0.00 32 1010.1
20260502222017 18 270 4.8 11.3 0.00 0.00 0.00 32 1010.2
20260502221037 18 270 4.8 17.7 0.00 0.00 0.00 32 1010.4
20260502220017 18 293 3.2 12.9 0.00 0.00 0.00 32 1010.6
20260502215017 18 270 3.2 11.3 0.00 0.00 0.00 31 1010.8
20260502214017 18 248 3.2 9.7 0.00 0.00 0.00 32 1010.9
20260502213017 18 293 8.0 22.5 0.00 0.00 0.00 31 1011.1
20260502212017 18 270 6.4 19.3 0.00 0.00 0.00 32 1011.2
20260502211017 19 270 6.4 27.4 0.00 0.00 0.00 31 1011.6
20260502210037 18 270 9.7 24.1 0.00 0.00 0.00 31 1011.6
20260502205037 18 293 4.8 17.7 0.00 0.00 0.00 31 1011.9
20260502204017 18 270 3.2 12.9 0.00 0.00 0.00 31 1012.1
20260502203037 18 293 4.8 14.5 0.00 0.00 0.00 31 1012.3
20260502202016 18 293 4.8 17.7 0.00 0.00 0.00 32 1012.6
20260502201017 18 293 6.4 22.5 0.00 0.00 0.00 32 1012.8
20260502200016 18 225 4.8 16.1 0.00 0.00 0.00 32 1013.0
20260502195016 18 293 4.8 19.3 0.00 0.00 0.00 32 1013.2
20260502194036 17 270 3.2 14.5 0.00 0.00 0.00 33 1013.4
20260502193016 17 158 4.8 12.9 0.00 0.00 0.00 32 1013.6
20260502192016 17 203 4.8 17.7 0.00 0.00 0.00 31 1013.7
20260502191016 17 225 1.6 11.3 0.00 0.00 0.00 32 1013.9
20260502190016 17 270 4.8 19.3 0.00 0.00 0.00 33 1014.1
20260502185016 16 270 4.8 11.3 0.00 0.00 0.00 34 1014.3
20260502184016 16 203 4.8 17.7 0.00 0.00 0.00 33 1014.6
20260502183016 16 270 4.8 17.7 0.00 0.00 0.00 33 1014.6
20260502182016 16 270 3.2 9.7 0.00 0.00 0.00 33 1014.9
20260502181016 15 248 3.2 9.7 0.00 0.00 0.00 33 1014.9
20260502164036 13 248 4.8 11.3 0.00 0.00 0.00 36 1016.2
20260502163016 13 225 3.2 8.0 0.00 0.00 0.00 36 1016.4
20260502162016 13 293 8.0 16.1 0.00 0.00 0.00 37 1016.6
20260502161016 13 293 8.0 16.1 0.00 0.00 0.00 34 1016.7
20260502152016 12 270 4.8 17.7 0.00 0.00 0.00 40 1017.3
20260502151016 12 270 4.8 17.7 0.00 0.00 0.00 40 1017.3
20260502123036 5 293 1.6 8.0 0.00 0.00 0.00 62 1017.8
20260502122015 5 293 1.6 4.8 0.00 0.00 0.00 64 1017.6
20260502121018 4 0.0 1.6 0.00 0.00 0.00 68 1017.6
20260502115018 2 0.0 3.2 0.00 0.00 0.00 76 1017.5
20260502114019 2 0.0 1.6 0.00 0.00 0.00 76 1017.5
20260502113037 2 0.0 0.0 0.00 0.00 0.00 75 1017.4
20260502112018 2 0.0 0.0 0.00 0.00 0.00 74 1017.3
20260502111017 2 0.0 0.0 0.00 0.00 0.00 73 1017.3
20260502110017 2 0.0 0.0 0.00 0.00 0.00 72 1017.2
20260502105037 2 0.0 0.0 0.00 0.00 0.00 72 1017.2
20260502104018 2 0.0 1.6 0.00 0.00 0.00 71 1017.2
20260502103017 3 0.0 0.0 0.00 0.00 0.00 70 1017.3
20260502102017 3 0.0 0.0 0.00 0.00 0.00 70 1017.2
20260502101017 3 0.0 0.0 0.00 0.00 0.00 69 1017.2
20260502091017 4 0.0 0.0 0.00 0.00 0.00 64 1017.0
20260502071017 6 293 3.2 8.0 0.00 0.00 0.00 55 1017.4
20260502070057 6 293 3.2 8.0 0.00 0.00 0.00 56 1017.5
20260502065037 6 293 1.6 8.0 0.00 0.00 0.00 57 1017.5
20260502064037 6 293 1.6 8.0 0.00 0.00 0.00 58 1017.5
20260502063017 6 0.0 3.2 0.00 0.00 0.00 58 1017.5
20260502062017 6 293 1.6 4.8 0.00 0.00 0.00 59 1017.6
20260502061037 6 0.0 3.2 0.00 0.00 0.00 60 1017.6
20260502060017 6 0.0 4.8 0.00 0.00 0.00 61 1017.7
20260502055017 6 0.0 1.6 0.00 0.00 0.00 62 1017.7
20260502054037 5 0.0 1.6 0.00 0.00 0.00 64 1017.6
20260502053017 5 0.0 3.2 0.00 0.00 0.00 65 1017.6
20260502052017 5 0.0 0.0 0.00 0.00 0.00 63 1017.6
20260502051017 5 0.0 0.0 0.00 0.00 0.00 62 1017.6
20260502050037 5 0.0 0.0 0.00 0.00 0.00 60 1017.5
20260502045017 6 0.0 0.0 0.00 0.00 0.00 59 1017.5
20260502044017 6 0.0 3.2 0.00 0.00 0.00 58 1017.5
20260502043017 5 0.0 3.2 0.00 0.00 0.00 58 1017.6
20260502042017 5 0.0 0.0 0.00 0.00 0.00 56 1017.5
20260502041017 6 0.0 0.0 0.00 0.00 0.00 54 1017.4
20260502040017 6 0.0 1.6 0.00 0.00 0.00 53 1017.5
20260502035017 6 0.0 0.0 0.00 0.00 0.00 51 1017.5
20260502034017 6 0.0 0.0 0.00 0.00 0.00 50 1017.5
20260502033017 6 0.0 0.0 0.00 0.00 0.00 49 1017.6
20260502032017 7 0.0 0.0 0.00 0.00 0.00 48 1017.6
20260502031017 7 0.0 0.0 0.00 0.00 0.00 47 1017.6
20260502030017 7 0.0 3.2 0.00 0.00 0.00 47 1017.6
20260502025017 7 0.0 1.6 0.00 0.00 0.00 46 1017.5
20260502024017 7 0.0 1.6 0.00 0.00 0.00 45 1017.6
20260502023017 7 0.0 0.0 0.00 0.00 0.00 44 1017.6
20260502022017 8 0.0 0.0 0.00 0.00 0.00 43 1017.6
20260502021017 8 0.0 0.0 0.00 0.00 0.00 42 1017.5
20260502020017 9 0.0 0.0 0.00 0.00 0.00 40 1017.4
20260502015017 9 0.0 1.6 0.00 0.00 0.00 38 1017.3
20260502014017 10 0.0 0.0 0.00 0.00 0.00 37 1017.1
20260502013017 10 0.0 4.8 0.00 0.00 0.00 35 1017.1
20260502012017 10 0.0 3.2 0.00 0.00 0.00 34 1017.1
20260502011037 10 293 1.6 6.4 0.00 0.00 0.00 33 1017.1
20260502010017 11 293 1.6 4.8 0.00 0.00 0.00 33 1017.0
20260502005017 11 293 1.6 6.4 0.00 0.00 0.00 32 1016.9
20260502004017 11 293 4.8 12.9 0.00 0.00 0.00 32 1017.0
20260502003017 11 270 4.8 11.3 0.00 0.00 0.00 32 1017.0
20260502002017 12 293 3.2 12.9 0.00 0.00 0.00 31 1017.0
20260502001017 12 293 1.6 6.4 0.00 0.00 0.00 31 1017.0
20260502000017 12 293 4.8 12.9 0.00 0.00 0.00 31 1017.0
20260501235017 12 293 1.6 9.7 0.00 0.00 0.00 31 1017.0